Time,TemperatureF,DewpointF,PressureIn,WindDirection,WindDirectionDegrees,WindSpeedMPH,WindSpeedGustMPH,Humidity,HourlyPrecipIn,Conditions,Clouds,dailyrainin,SolarRadiationWatts/m^2,SoftwareType,DateUTC
2013-02-13 00:00:00,32.8,26.7,29.92,ENE,77,0.0,0.0,78,0.00,,,0.00,0,Wunderground v.1.15,2013-02-13 05:00:00,
2013-02-13 00:09:00,32.8,26.7,29.91,ENE,77,0.0,0.0,78,0.00,,,0.00,0,Wunderground v.1.15,2013-02-13 05:09:00,
2013-02-13 00:20:00,31.5,26.0,29.92,ENE,77,0.0,0.0,80,0.00,,,0.00,0,Wunderground v.1.15,2013-02-13 05:20:00,
2013-02-13 00:30:00,32.0,27.1,29.92,ENE,77,0.0,0.0,82,0.00,,,0.00,0,Wunderground v.1.15,2013-02-13 05:30:00,
2013-02-13 00:39:00,32.7,26.6,29.92,ENE,77,0.0,0.0,78,0.00,,,0.00,0,Wunderground v.1.15,2013-02-13 05:39:00,
2013-02-13 00:50:00,31.8,25.7,29.93,ENE,77,0.0,0.0,78,0.00,,,0.00,0,Wunderground v.1.15,2013-02-13 05:50:00,
2013-02-13 01:00:00,31.0,25.9,29.92,SE,139,0.0,0.0,81,0.00,,,0.00,0,Wunderground v.1.15,2013-02-13 06:00:00,
2013-02-13 01:10:00,32.0,26.2,29.92,SE,139,0.0,0.0,79,0.00,,,0.00,0,Wunderground v.1.15,2013-02-13 06:10:00,
2013-02-13 01:19:00,30.6,25.2,29.92,SE,139,0.0,0.0,80,0.00,,,0.00,0,Wunderground v.1.15,2013-02-13 06:19:00,
2013-02-13 01:30:00,29.8,25.0,29.91,SE,139,0.0,0.0,82,0.00,,,0.00,0,Wunderground v.1.15,2013-02-13 06:30:00,
2013-02-13 01:40:00,29.5,24.7,29.92,SE,139,0.0,0.0,82,0.00,,,0.00,0,Wunderground v.1.15,2013-02-13 06:40:00,
2013-02-13 01:50:00,29.6,25.4,29.90,SE,139,0.0,0.0,84,0.00,,,0.00,0,Wunderground v.1.15,2013-02-13 06:50:00,
2013-02-13 02:00:00,28.3,24.1,29.90,SE,139,0.0,0.0,84,0.00,,,0.00,0,Wunderground v.1.15,2013-02-13 07:00:00,
2013-02-13 02:10:00,28.7,24.8,29.88,SE,139,0.0,0.0,85,0.00,,,0.00,0,Wunderground v.1.15,2013-02-13 07:10:00,
2013-02-13 02:20:00,29.2,25.5,29.89,SE,139,0.0,0.0,86,0.00,,,0.00,0,Wunderground v.1.15,2013-02-13 07:20:00,
2013-02-13 02:30:00,28.1,23.9,29.89,SE,139,0.0,0.0,84,0.00,,,0.00,0,Wunderground v.1.15,2013-02-13 07:30:00,
2013-02-13 02:40:00,28.9,25.5,29.89,SE,139,0.0,0.0,87,0.00,,,0.00,0,Wunderground v.1.15,2013-02-13 07:40:00,
2013-02-13 02:50:00,28.8,24.6,29.89,SE,139,0.0,0.0,84,0.00,,,0.00,0,Wunderground v.1.15,2013-02-13 07:50:00,
2013-02-13 03:00:00,27.9,24.0,29.88,SE,139,0.0,0.0,85,0.00,,,0.00,0,Wunderground v.1.15,2013-02-13 08:00:00,
2013-02-13 03:10:00,27.5,23.6,29.87,SE,139,0.0,0.0,85,0.00,,,0.00,0,Wunderground v.1.15,2013-02-13 08:10:00,
2013-02-13 03:20:00,26.8,23.4,29.88,SE,139,0.0,0.0,87,0.00,,,0.00,0,Wunderground v.1.15,2013-02-13 08:20:00,
2013-02-13 03:30:00,27.2,24.1,29.87,SE,139,0.0,0.0,88,0.00,,,0.00,0,Wunderground v.1.15,2013-02-13 08:30:00,
2013-02-13 03:40:00,28.6,25.5,29.87,SE,139,0.0,0.0,88,0.00,,,0.00,0,Wunderground v.1.15,2013-02-13 08:40:00,
2013-02-13 03:50:00,27.8,24.4,29.87,SE,139,0.0,0.0,87,0.00,,,0.00,0,Wunderground v.1.15,2013-02-13 08:50:00,
2013-02-13 04:00:00,28.3,25.2,29.87,SE,139,0.0,0.0,88,0.00,,,0.00,0,Wunderground v.1.15,2013-02-13 09:00:00,
2013-02-13 04:10:00,28.9,25.8,29.87,SE,139,0.0,0.0,88,0.00,,,0.00,0,Wunderground v.1.15,2013-02-13 09:10:00,
2013-02-13 04:20:00,28.0,24.4,29.87,SE,139,0.0,0.0,86,0.00,,,0.00,0,Wunderground v.1.15,2013-02-13 09:20:00,
2013-02-13 04:30:00,29.1,25.7,29.87,SE,139,0.0,0.0,87,0.00,,,0.00,0,Wunderground v.1.15,2013-02-13 09:30:00,
2013-02-13 04:40:00,28.9,25.2,29.87,SE,139,0.0,0.0,86,0.00,,,0.00,0,Wunderground v.1.15,2013-02-13 09:40:00,
2013-02-13 04:50:00,28.5,24.6,29.88,SE,139,0.0,0.0,85,0.00,,,0.00,0,Wunderground v.1.15,2013-02-13 09:50:00,
2013-02-13 05:00:00,29.1,25.7,29.88,SE,139,0.0,0.0,87,0.00,,,0.00,0,Wunderground v.1.15,2013-02-13 10:00:00,
2013-02-13 05:10:00,27.8,23.9,29.87,SE,139,0.0,0.0,85,0.00,,,0.00,0,Wunderground v.1.15,2013-02-13 10:10:00,
2013-02-13 05:20:00,28.2,24.8,29.87,SE,139,0.0,0.0,87,0.00,,,0.00,0,Wunderground v.1.15,2013-02-13 10:20:00,
2013-02-13 05:30:00,28.5,25.1,29.87,SE,139,0.0,0.0,87,0.00,,,0.00,0,Wunderground v.1.15,2013-02-13 10:30:00,
2013-02-13 05:40:00,28.7,25.3,29.86,SE,139,0.0,0.0,87,0.00,,,0.00,0,Wunderground v.1.15,2013-02-13 10:40:00,
2013-02-13 05:50:00,28.7,25.3,29.86,SE,139,0.0,0.0,87,0.00,,,0.00,0,Wunderground v.1.15,2013-02-13 10:50:00,
2013-02-13 06:00:00,28.7,25.3,29.87,SE,139,0.0,0.0,87,0.00,,,0.00,0,Wunderground v.1.15,2013-02-13 11:00:00,
2013-02-13 06:10:00,28.1,24.5,29.86,SE,139,0.0,0.0,86,0.00,,,0.00,0,Wunderground v.1.15,2013-02-13 11:10:00,
2013-02-13 06:20:00,27.3,23.9,29.86,SE,139,0.0,0.0,87,0.00,,,0.00,0,Wunderground v.1.15,2013-02-13 11:20:00,
2013-02-13 06:30:00,27.4,24.3,29.86,SE,139,0.0,0.0,88,0.00,,,0.00,0,Wunderground v.1.15,2013-02-13 11:30:00,
2013-02-13 06:40:00,28.2,25.1,29.85,SE,139,0.0,0.0,88,0.00,,,0.00,0,Wunderground v.1.15,2013-02-13 11:40:00,
2013-02-13 06:50:00,28.4,25.3,29.85,SE,139,0.0,0.0,88,0.00,,,0.00,0,Wunderground v.1.15,2013-02-13 11:50:00,
2013-02-13 07:00:00,27.8,24.7,29.85,SE,139,0.0,0.0,88,0.00,,,0.00,0,Wunderground v.1.15,2013-02-13 12:00:00,
2013-02-13 07:10:00,27.6,24.5,29.84,SE,139,0.0,0.0,88,0.00,,,0.00,0,Wunderground v.1.15,2013-02-13 12:10:00,
2013-02-13 07:20:00,27.3,24.5,29.84,SE,139,0.0,0.0,89,0.00,,,0.00,9,Wunderground v.1.15,2013-02-13 12:20:00,
2013-02-13 07:30:00,27.8,25.2,29.85,SE,139,0.0,0.0,90,0.00,,,0.00,19,Wunderground v.1.15,2013-02-13 12:30:00,
2013-02-13 07:40:00,28.7,25.9,29.84,ESE,111,0.0,0.0,89,0.00,,,0.00,26,Wunderground v.1.15,2013-02-13 12:40:00,
2013-02-13 07:50:00,29.5,26.4,29.84,ESE,111,0.0,0.0,88,0.00,,,0.00,46,Wunderground v.1.15,2013-02-13 12:50:00,
2013-02-13 08:00:00,30.2,26.8,29.86,ESE,111,0.0,0.0,87,0.00,,,0.00,54,Wunderground v.1.15,2013-02-13 13:00:00,
2013-02-13 08:10:00,30.9,27.5,29.86,ESE,111,0.0,0.0,87,0.00,,,0.00,76,Wunderground v.1.15,2013-02-13 13:10:00,
2013-02-13 08:20:00,31.1,27.4,29.86,SE,141,0.0,0.0,86,0.00,,,0.00,70,Wunderground v.1.15,2013-02-13 13:20:00,
2013-02-13 08:30:00,31.6,27.6,29.86,SE,141,0.0,0.0,85,0.00,,,0.00,86,Wunderground v.1.15,2013-02-13 13:30:00,
2013-02-13 08:39:00,32.1,28.1,29.86,SE,141,0.0,0.0,85,0.00,,,0.00,104,Wunderground v.1.15,2013-02-13 13:39:00,
2013-02-13 08:50:00,33.0,29.0,29.86,SE,141,0.0,0.0,85,0.00,,,0.00,118,Wunderground v.1.15,2013-02-13 13:50:00,
2013-02-13 09:00:00,33.4,28.5,29.85,SE,141,0.0,0.0,82,0.00,,,0.00,109,Wunderground v.1.15,2013-02-13 14:00:00,
2013-02-13 09:10:00,34.0,29.1,29.84,SE,141,0.0,0.0,82,0.00,,,0.00,134,Wunderground v.1.15,2013-02-13 14:10:00,
2013-02-13 09:20:00,34.6,29.7,29.85,SE,141,0.0,0.0,82,0.00,,,0.00,125,Wunderground v.1.15,2013-02-13 14:20:00,
2013-02-13 09:30:00,35.2,30.0,29.84,SE,140,0.0,0.0,81,0.00,,,0.00,146,Wunderground v.1.15,2013-02-13 14:30:00,
2013-02-13 09:40:00,36.1,30.2,29.83,NE,55,0.0,0.0,79,0.00,,,0.00,172,Wunderground v.1.15,2013-02-13 14:40:00,
2013-02-13 09:50:00,36.9,30.0,29.83,NE,55,0.0,0.0,76,0.00,,,0.00,223,Wunderground v.1.15,2013-02-13 14:50:00,
2013-02-13 10:00:00,37.4,29.5,29.83,ENE,73,0.0,0.0,73,0.00,,,0.00,223,Wunderground v.1.15,2013-02-13 15:00:00,
2013-02-13 10:10:00,38.0,29.1,29.83,SE,130,2.0,4.0,70,0.00,,,0.00,207,Wunderground v.1.15,2013-02-13 15:10:00,
2013-02-13 10:20:00,38.3,29.0,29.83,ESE,109,3.0,3.0,69,0.00,,,0.00,209,Wunderground v.1.15,2013-02-13 15:20:00,
2013-02-13 10:30:00,38.7,29.0,29.81,East,100,4.0,4.0,68,0.00,,,0.00,265,Wunderground v.1.15,2013-02-13 15:30:00,
2013-02-13 10:40:00,39.2,29.5,29.82,East,83,3.0,3.0,68,0.00,,,0.00,225,Wunderground v.1.15,2013-02-13 15:40:00,
2013-02-13 10:50:00,39.3,28.9,29.82,ENE,71,2.0,2.0,66,0.00,,,0.00,225,Wunderground v.1.15,2013-02-13 15:50:00,
2013-02-13 11:00:00,39.6,29.2,29.82,ESE,119,3.0,3.0,66,0.00,,,0.00,165,Wunderground v.1.15,2013-02-13 16:00:00,
2013-02-13 11:10:00,39.3,28.5,29.81,ESE,112,2.0,3.0,65,0.00,,,0.00,178,Wunderground v.1.15,2013-02-13 16:10:00,
2013-02-13 11:20:00,39.8,29.4,29.79,ESE,111,4.0,5.0,66,0.00,,,0.00,234,Wunderground v.1.15,2013-02-13 16:20:00,
2013-02-13 11:30:00,40.3,29.8,29.79,East,89,4.0,6.0,66,0.00,,,0.00,313,Wunderground v.1.15,2013-02-13 16:30:00,
2013-02-13 11:40:00,40.6,29.4,29.78,East,94,4.0,4.0,64,0.00,,,0.00,267,Wunderground v.1.15,2013-02-13 16:40:00,
2013-02-13 11:50:00,41.3,30.0,29.77,East,90,4.0,4.0,64,0.00,,,0.00,272,Wunderground v.1.15,2013-02-13 16:50:00,
2013-02-13 12:00:00,41.0,30.1,29.76,ESE,105,6.0,6.0,65,0.00,,,0.00,336,Wunderground v.1.15,2013-02-13 17:00:00,
2013-02-13 12:10:00,41.1,29.8,29.77,SSE,154,5.0,5.0,64,0.00,,,0.00,207,Wunderground v.1.15,2013-02-13 17:10:00,
2013-02-13 12:20:00,40.8,29.6,29.77,ESE,103,3.0,3.0,64,0.00,,,0.00,153,Wunderground v.1.15,2013-02-13 17:20:00,
2013-02-13 12:30:00,40.4,29.2,29.76,ESE,119,2.0,2.0,64,0.00,,,0.00,100,Wunderground v.1.15,2013-02-13 17:30:00,
2013-02-13 12:40:00,40.4,29.6,29.75,ESE,119,0.0,2.0,65,0.00,,,0.00,125,Wunderground v.1.15,2013-02-13 17:40:00,
2013-02-13 12:50:00,40.6,29.7,29.75,ESE,105,1.0,1.0,65,0.00,,,0.00,116,Wunderground v.1.15,2013-02-13 17:50:00,
2013-02-13 13:00:00,40.4,29.6,29.75,ESE,119,1.0,1.0,65,0.00,,,0.00,62,Wunderground v.1.15,2013-02-13 18:00:00,
2013-02-13 13:10:00,40.4,29.9,29.75,ESE,122,0.0,0.0,66,0.00,,,0.00,67,Wunderground v.1.15,2013-02-13 18:10:00,
2013-02-13 13:20:00,40.5,30.0,29.74,ENE,60,0.0,3.0,66,0.00,,,0.00,69,Wunderground v.1.15,2013-02-13 18:20:00,
2013-02-13 13:30:00,40.5,29.7,29.73,ENE,59,0.0,0.0,65,0.00,,,0.00,93,Wunderground v.1.15,2013-02-13 18:30:00,
2013-02-13 13:40:00,40.7,30.2,29.73,ENE,59,0.0,0.0,66,0.00,,,0.00,104,Wunderground v.1.15,2013-02-13 18:40:00,
2013-02-13 13:50:00,41.0,30.5,29.72,ENE,66,0.0,1.0,66,0.00,,,0.00,84,Wunderground v.1.15,2013-02-13 18:50:00,
2013-02-13 14:00:00,40.8,29.9,29.71,NE,36,0.0,0.0,65,0.00,,,0.00,54,Wunderground v.1.15,2013-02-13 19:00:00,
2013-02-13 14:10:00,40.8,30.7,29.71,NE,56,1.0,1.0,67,0.00,,,0.00,67,Wunderground v.1.15,2013-02-13 19:10:00,
2013-02-13 14:20:00,41.0,31.2,29.70,ENE,63,1.0,2.0,68,0.00,,,0.00,86,Wunderground v.1.15,2013-02-13 19:20:00,
2013-02-13 14:30:00,41.0,31.2,29.69,ENE,61,2.0,2.0,68,0.00,,,0.00,95,Wunderground v.1.15,2013-02-13 19:30:00,
2013-02-13 14:40:00,41.1,31.3,29.68,North,355,1.0,2.0,68,0.00,,,0.00,107,Wunderground v.1.15,2013-02-13 19:40:00,
2013-02-13 14:50:00,41.2,30.7,29.69,NNW,337,1.0,2.0,66,0.00,,,0.00,74,Wunderground v.1.15,2013-02-13 19:50:00,
2013-02-13 15:00:00,41.1,31.0,29.68,NNE,28,1.0,1.0,67,0.00,,,0.00,81,Wunderground v.1.15,2013-02-13 20:00:00,
2013-02-13 15:10:00,41.1,31.3,29.67,NNE,26,1.0,3.0,68,0.00,,,0.00,84,Wunderground v.1.15,2013-02-13 20:10:00,
2013-02-13 15:20:00,41.0,31.2,29.67,NE,40,2.0,2.0,68,0.00,,,0.00,91,Wunderground v.1.15,2013-02-13 20:20:00,
2013-02-13 15:30:00,40.9,30.8,29.67,NE,44,2.0,2.0,67,0.00,,,0.00,72,Wunderground v.1.15,2013-02-13 20:30:00,
2013-02-13 15:40:00,40.7,30.6,29.68,NNE,33,1.0,1.0,67,0.00,,,0.00,69,Wunderground v.1.15,2013-02-13 20:40:00,
2013-02-13 15:50:00,40.9,31.1,29.67,NNW,345,0.0,0.0,68,0.00,,,0.00,70,Wunderground v.1.15,2013-02-13 20:50:00,
2013-02-13 16:00:00,41.0,31.2,29.67,NNE,14,1.0,1.0,68,0.00,,,0.00,69,Wunderground v.1.15,2013-02-13 21:00:00,
2013-02-13 16:10:00,41.0,31.2,29.67,NNE,14,0.0,0.0,68,0.00,,,0.00,49,Wunderground v.1.15,2013-02-13 21:10:00,
2013-02-13 16:20:00,40.9,31.5,29.67,NNE,13,1.0,2.0,69,0.00,,,0.00,47,Wunderground v.1.15,2013-02-13 21:20:00,
2013-02-13 16:30:00,40.7,31.3,29.67,North,9,1.0,1.0,69,0.00,,,0.00,35,Wunderground v.1.15,2013-02-13 21:30:00,
2013-02-13 16:40:00,40.5,31.5,29.66,North,360,2.0,3.0,70,0.00,,,0.00,28,Wunderground v.1.15,2013-02-13 21:40:00,
2013-02-13 16:50:00,40.1,32.5,29.66,NNE,13,2.0,2.0,74,0.00,,,0.00,42,Wunderground v.1.15,2013-02-13 21:50:00,
2013-02-13 17:00:00,39.7,32.4,29.66,NNW,346,2.0,3.0,75,0.00,,,0.00,30,Wunderground v.1.15,2013-02-13 22:00:00,
2013-02-13 17:10:00,39.4,32.5,29.66,NNW,330,2.0,3.0,76,0.00,,,0.00,9,Wunderground v.1.15,2013-02-13 22:10:00,
2013-02-13 17:20:00,39.0,32.7,29.67,North,355,1.0,1.0,78,0.00,,,0.00,0,Wunderground v.1.15,2013-02-13 22:20:00,
2013-02-13 17:30:00,38.6,33.0,29.68,North,355,2.0,2.0,80,0.00,,,0.00,0,Wunderground v.1.15,2013-02-13 22:30:00,
2013-02-13 17:40:00,38.2,32.9,29.67,NW,323,2.0,2.0,81,0.00,,,0.00,0,Wunderground v.1.15,2013-02-13 22:40:00,
2013-02-13 17:50:00,37.7,32.7,29.67,North,355,2.0,2.0,82,0.00,,,0.01,0,Wunderground v.1.15,2013-02-13 22:50:00,
2013-02-13 18:00:00,37.3,32.9,29.67,North,5,1.0,1.0,84,0.00,,,0.01,0,Wunderground v.1.15,2013-02-13 23:00:00,
2013-02-13 18:10:00,36.8,32.7,29.68,NNE,13,1.0,1.0,85,0.00,,,0.02,0,Wunderground v.1.15,2013-02-13 23:10:00,
2013-02-13 18:20:00,36.4,32.6,29.68,NNW,348,0.0,0.0,86,0.05,,,0.03,0,Wunderground v.1.15,2013-02-13 23:20:00,
2013-02-13 18:30:00,36.2,32.4,29.69,NNW,348,0.0,0.0,86,0.04,,,0.03,0,Wunderground v.1.15,2013-02-13 23:30:00,
2013-02-13 18:40:00,36.0,32.5,29.70,NNW,348,0.0,0.0,87,0.00,,,0.04,0,Wunderground v.1.15,2013-02-13 23:40:00,
2013-02-13 18:50:00,35.8,32.6,29.70,NNW,332,0.0,2.0,88,0.00,,,0.04,0,Wunderground v.1.15,2013-02-13 23:50:00,
2013-02-13 19:00:00,35.4,32.2,29.70,NNW,333,1.0,1.0,88,0.05,,,0.05,0,Wunderground v.1.15,2013-02-14 00:00:00,
2013-02-13 19:10:00,35.0,32.1,29.70,NNW,333,1.0,1.0,89,0.00,,,0.05,0,Wunderground v.1.15,2013-02-14 00:10:00,
2013-02-13 19:20:00,34.6,31.7,29.71,NNW,333,0.0,0.0,89,0.00,,,0.05,0,Wunderground v.1.15,2013-02-14 00:20:00,
2013-02-13 19:30:00,34.4,31.8,29.72,NNW,333,0.0,1.0,90,0.00,,,0.05,0,Wunderground v.1.15,2013-02-14 00:30:00,
2013-02-13 19:40:00,34.3,31.7,29.72,NNW,333,0.0,0.0,90,0.00,,,0.05,0,Wunderground v.1.15,2013-02-14 00:40:00,
2013-02-13 19:50:00,34.0,31.4,29.72,NW,322,0.0,0.0,90,0.00,,,0.05,0,Wunderground v.1.15,2013-02-14 00:50:00,
2013-02-13 20:00:00,33.9,31.6,29.72,NW,322,0.0,0.0,91,0.00,,,0.05,0,Wunderground v.1.15,2013-02-14 01:00:00,
2013-02-13 20:10:00,33.8,31.5,29.73,NW,325,0.0,0.0,91,0.00,,,0.05,0,Wunderground v.1.15,2013-02-14 01:10:00,
2013-02-13 20:20:00,33.7,31.4,29.73,NW,325,0.0,0.0,91,0.00,,,0.05,0,Wunderground v.1.15,2013-02-14 01:20:00,
2013-02-13 20:30:00,33.8,31.5,29.73,NNW,336,0.0,2.0,91,0.00,,,0.05,0,Wunderground v.1.15,2013-02-14 01:30:00,
2013-02-13 20:40:00,33.8,31.7,29.73,NNW,336,1.0,1.0,92,0.00,,,0.05,0,Wunderground v.1.15,2013-02-14 01:40:00,
2013-02-13 20:50:00,33.7,31.6,29.73,NNW,336,0.0,0.0,92,0.00,,,0.05,0,Wunderground v.1.15,2013-02-14 01:50:00,
2013-02-13 21:00:00,33.6,31.5,29.74,NNW,336,0.0,0.0,92,0.00,,,0.05,0,Wunderground v.1.15,2013-02-14 02:00:00,
2013-02-13 21:10:00,33.6,31.5,29.74,NNW,336,0.0,0.0,92,0.00,,,0.05,0,Wunderground v.1.15,2013-02-14 02:10:00,
2013-02-13 21:20:00,33.6,31.5,29.74,NNW,336,0.0,0.0,92,0.00,,,0.05,0,Wunderground v.1.15,2013-02-14 02:20:00,
2013-02-13 21:30:00,33.6,31.5,29.74,NNW,336,0.0,0.0,92,0.00,,,0.05,0,Wunderground v.1.15,2013-02-14 02:30:00,
2013-02-13 21:40:00,33.5,31.4,29.75,NNW,336,0.0,0.0,92,0.00,,,0.05,0,Wunderground v.1.15,2013-02-14 02:40:00,
2013-02-13 21:50:00,33.6,31.5,29.75,NNW,336,0.0,0.0,92,0.00,,,0.05,0,Wunderground v.1.15,2013-02-14 02:50:00,
2013-02-13 22:00:00,33.6,31.5,29.75,NNW,336,0.0,0.0,92,0.00,,,0.05,0,Wunderground v.1.15,2013-02-14 03:00:00,
2013-02-13 22:10:00,33.6,31.8,29.75,NNW,336,0.0,0.0,93,0.00,,,0.05,0,Wunderground v.1.15,2013-02-14 03:10:00,
2013-02-13 22:20:00,33.6,31.8,29.75,NNW,336,0.0,0.0,93,0.00,,,0.05,0,Wunderground v.1.15,2013-02-14 03:20:00,
2013-02-13 22:30:00,33.5,31.7,29.75,NNW,336,0.0,0.0,93,0.00,,,0.05,0,Wunderground v.1.15,2013-02-14 03:30:00,
2013-02-13 22:40:00,33.4,31.6,29.76,NNW,336,0.0,0.0,93,0.00,,,0.05,0,Wunderground v.1.15,2013-02-14 03:40:00,
2013-02-13 22:50:00,33.4,31.6,29.76,NNW,336,0.0,0.0,93,0.00,,,0.06,0,Wunderground v.1.15,2013-02-14 03:50:00,
2013-02-13 23:00:00,33.5,31.7,29.77,NNW,336,0.0,0.0,93,0.00,,,0.06,0,Wunderground v.1.15,2013-02-14 04:00:00,
2013-02-13 23:10:00,33.6,31.8,29.77,NNW,336,0.0,0.0,93,0.00,,,0.06,0,Wunderground v.1.15,2013-02-14 04:10:00,
2013-02-13 23:20:00,33.7,31.9,29.76,NNW,336,0.0,0.0,93,0.00,,,0.06,0,Wunderground v.1.15,2013-02-14 04:20:00,
2013-02-13 23:30:00,33.7,31.9,29.77,NNW,336,0.0,0.0,93,0.00,,,0.06,0,Wunderground v.1.15,2013-02-14 04:30:00,
2013-02-13 23:40:00,33.7,31.9,29.78,NNW,336,0.0,0.0,93,0.00,,,0.06,0,Wunderground v.1.15,2013-02-14 04:40:00,
2013-02-13 23:50:00,33.8,32.3,29.77,NNW,336,0.0,0.0,94,0.00,,,0.06,0,Wunderground v.1.15,2013-02-14 04:50:00,